Location: Bern�tre
(50.1974°N, 2.0915°E)
Time: 06:23:20
(UTC+00:00)

Terra - Pass Details

Date: 18 September 2020
Orbit: 701 x 703 km, 98.2° (Epoch: 22 October)

Event Time Altitude Azimuth Distance (km) Brightness Sun altitude
Exits shadow 20:19:12 19° 50° (NE) 1,641 3.5 -22.2°
Drops below altitude 10° 20:22:06 10° 13° (NNE) 2,184 4.6 -22.6°
Sets 20:24:53 0° 357° (N) 3,107 5.7 -23.0°
